TimeEDT,TemperatureF,Dew PointF,Humidity,Sea Level PressureIn,VisibilityMPH,Wind Direction,Wind SpeedMPH,Gust SpeedMPH,PrecipitationIn,Events,Conditions,WindDirDegrees,DateUTC
12:20 AM,66.2,66.2,100,30.09,10.0,WSW,9.2,-,N/A,,Overcast,240,2012-09-05 04:20:00
12:37 AM,66.2,66.2,100,30.08,10.0,SW,9.2,-,N/A,,Overcast,230,2012-09-05 04:37:00
6:17 AM,66.2,-9999,N/A,30.06,0.2,WSW,10.4,-,N/A,Fog,Fog,250,2012-09-05 10:17:00
7:18 AM,66.2,66.2,100,30.07,0.2,WSW,9.2,-,N/A,Fog,Fog,250,2012-09-05 11:18:00
9:02 AM,66.2,66.2,100,30.08,0.2,WSW,6.9,-,N/A,Fog,Fog,250,2012-09-05 13:02:00
9:17 AM,68.0,68.0,100,30.08,4.0,West,5.8,-,N/A,,Overcast,260,2012-09-05 13:17:00
9:37 AM,66.2,66.2,100,30.09,0.2,WSW,6.9,-,N/A,Fog,Fog,250,2012-09-05 13:37:00
9:57 AM,68.0,68.0,100,30.09,0.2,West,8.1,-,N/A,Fog,Fog,260,2012-09-05 13:57:00
10:20 AM,69.8,69.8,100,30.09,10.0,West,5.8,-,N/A,,Mostly Cloudy,270,2012-09-05 14:20:00
10:41 AM,69.8,68.0,94,30.09,10.0,West,5.8,-,N/A,,Mostly Cloudy,270,2012-09-05 14:41:00
11:00 AM,69.8,68.0,94,30.10,10.0,West,5.8,-,N/A,,Overcast,260,2012-09-05 15:00:00
11:17 AM,71.6,68.0,88,30.10,10.0,West,4.6,-,N/A,,Mostly Cloudy,270,2012-09-05 15:17:00
11:41 AM,71.6,66.2,83,30.10,10.0,SW,4.6,-,N/A,,Scattered Clouds,230,2012-09-05 15:41:00
11:58 AM,71.6,66.2,83,30.10,10.0,West,5.8,-,N/A,Rain,Light Rain,280,2012-09-05 15:58:00
12:17 PM,69.8,68.0,94,30.09,5.0,West,4.6,-,N/A,,Light Drizzle,260,2012-09-05 16:17:00
12:37 PM,69.8,69.8,100,30.09,10.0,West,5.8,-,N/A,,Mostly Cloudy,260,2012-09-05 16:37:00
1:01 PM,71.6,66.2,83,30.09,10.0,West,5.8,-,N/A,Thunderstorm,Mostly Cloudy,260,2012-09-05 17:01:00
1:21 PM,71.6,66.2,83,30.09,10.0,Calm,Calm,-,N/A,Thunderstorm,Thunderstorm,0,2012-09-05 17:21:00
1:44 PM,73.4,68.0,83,30.06,10.0,Calm,Calm,-,N/A,,Scattered Clouds,0,2012-09-05 17:44:00
2:00 PM,73.4,69.8,88,30.06,10.0,SSE,6.9,-,N/A,,Scattered Clouds,150,2012-09-05 18:00:00
2:23 PM,75.2,68.0,78,30.05,10.0,WSW,4.6,-,N/A,Thunderstorm,Scattered Clouds,250,2012-09-05 18:23:00
2:37 PM,75.2,68.0,78,30.06,10.0,West,5.8,-,N/A,,Clear,270,2012-09-05 18:37:00
2:57 PM,73.4,69.8,88,30.05,10.0,SE,4.6,-,N/A,,Mostly Cloudy,140,2012-09-05 18:57:00
3:17 PM,73.4,69.8,88,30.05,10.0,SE,5.8,-,N/A,,Mostly Cloudy,140,2012-09-05 19:17:00
3:40 PM,71.6,69.8,94,30.04,10.0,South,8.1,-,N/A,,Scattered Clouds,170,2012-09-05 19:40:00
4:00 PM,73.4,69.8,88,30.04,10.0,SE,6.9,-,N/A,,Scattered Clouds,140,2012-09-05 20:00:00
4:38 PM,69.8,66.2,88,30.04,2.0,Calm,Calm,-,0.13,Rain-Thunderstorm,Heavy Thunderstorms and Rain,0,2012-09-05 20:38:00
4:58 PM,69.8,68.0,94,30.04,10.0,SW,3.5,-,0.01,Rain,Rain,220,2012-09-05 20:58:00
5:24 PM,69.8,69.8,100,30.06,5.0,West,4.6,-,0.03,,Drizzle,280,2012-09-05 21:24:00
5:38 PM,69.8,68.0,94,30.06,10.0,Calm,Calm,-,0.03,,Overcast,0,2012-09-05 21:38:00
6:02 PM,69.8,68.0,94,30.05,7.0,South,5.8,-,N/A,,Light Drizzle,180,2012-09-05 22:02:00
6:23 PM,69.8,68.0,94,30.04,10.0,Calm,Calm,-,N/A,,Mostly Cloudy,0,2012-09-05 22:23:00
6:40 PM,69.8,69.8,100,30.04,10.0,Calm,Calm,-,N/A,,Mostly Cloudy,0,2012-09-05 22:40:00
6:58 PM,69.8,68.0,94,30.04,10.0,South,3.5,-,N/A,,Mostly Cloudy,180,2012-09-05 22:58:00
7:27 PM,69.8,68.0,94,30.05,10.0,SSW,3.5,-,N/A,,Mostly Cloudy,200,2012-09-05 23:27:00
7:44 PM,68.0,66.2,94,30.06,10.0,Calm,Calm,-,N/A,,Scattered Clouds,0,2012-09-05 23:44:00
8:04 PM,68.0,68.0,100,30.07,2.5,West,6.9,-,N/A,,Mostly Cloudy,270,2012-09-06 00:04:00
8:18 PM,68.0,68.0,100,30.07,0.2,West,5.8,-,N/A,Fog,Fog,280,2012-09-06 00:18:00
8:40 PM,68.0,68.0,100,30.07,0.5,Calm,Calm,-,N/A,Fog,Fog,0,2012-09-06 00:40:00
8:58 PM,68.0,68.0,100,30.07,3.0,Calm,Calm,-,N/A,,Overcast,0,2012-09-06 00:58:00
9:25 PM,66.2,66.2,100,30.08,10.0,WSW,4.6,-,N/A,,Overcast,240,2012-09-06 01:25:00
9:58 PM,66.2,66.2,100,30.07,10.0,SW,3.5,-,N/A,,Overcast,220,2012-09-06 01:58:00
10:22 PM,66.2,66.2,100,30.06,7.0,Calm,Calm,-,N/A,Rain,Light Rain,0,2012-09-06 02:22:00